Location: Peterborough
(44.3091°N, 78.3197°W)
Time: 18:46:22
(UTC-05:00)

Tiros 1 - Pass Details

Date: 30 September 2023
Orbit: 626 x 659 km, 48.4° (Epoch: 04 December)

Event Time Altitude Azimuth Distance (km) Brightness Sun altitude
Exits shadow 06:34:36 - 229° (SW) 2,706 9.9 -7.1°
Reaches altitude 10° 06:36:24 10° 225° (SW) 2,019 9.3 -6.8°
Maximum altitude 06:40:56 55° 149° (SSE) 773 7.8 -6.0°
Drops below altitude 10° 06:45:33 10° 72° (ENE) 2,050 11.2 -5.1°
Sets 06:47:56 0° 68° (ENE) 2,969 12.1 -4.7°
